Location: Casteau
(50.5142°N, 4.0161°E)
Time: 04:50:16
(UTC+00:00)

Vanguard 1 Rocket - Pass Details

Date: 04 August 2021
Orbit: 650 x 4226 km, 34.3° (Epoch: 21 September)

Event Time Altitude Azimuth Distance (km) Brightness Sun altitude
Rises 13:00:07 0° 265° (W) 6,950 12.2 53.7°
Reaches altitude 10° 13:06:20 10° 256° (WSW) 5,275 11.8 53.2°
Maximum altitude 13:16:49 27° 207° (SSW) 2,871 11.3 52.3°
Drops below altitude 10° 13:23:18 10° 153° (SSE) 3,153 10.5 51.7°
Sets 13:25:58 0° 140° (SE) 3,788 10.7 51.5°
